STARLINK-4151, 53034

Orbit data source: Space-Track

STARLINK-4151, 53034 is a payload satellite owned by SpaceX/Seattle (US) in LEO that was launched on Thu, 07 Jul 2022 UTC via an FALCON 9 launch vehicle from the Air Force Eastern Test Range (AFETR). Payload-class satellites include a variety of spacecraft equipped with specific instruments for various scientific and technological missions. These include communications satellites like Starlink; space stations such as the ISS; scientific satellites like the Hubble; Earth observation satellites from companies like Planet Labs, Umbra, and HawkEye 360; GPS; miniature CubeSats for education and research; and military/defense satellites.

Loading next visibility...
Identifier
53034, 2022-076BA
Orbit
LEO
Country
Flag of USUS
Related business
Manufacturer
SpaceX/Seattle
Mission
Operational Commercial Communications
Bus & Motor
STARLINK, Unknown motor
Mass
297 kg wet, ~275 kg dry
Launch date (UTC)
2022-07-07 (3 years ago)
Launch vehicle
FALCON 9
Launch site
Air Force Eastern Test Range (AFETR)
Object type
Payload
Rocket body
Debris
Shape & HBR
Box + 1 Pan, 10.1 m
Radar Cross Section
13.562 m², Large (>1 m²)

Expand to show TLE details & history
Last TLE update: 15 hours ago

TLE from 15 hours ago
0 STARLINK-4151
1 53034U 22076BA  25351.56186905 -.00003864  00000-0 -22483-3 0  9993
2 53034  53.2204  82.8566 0001637  91.7204 268.3976 15.08834216190726
Epoch: 2025-12-17T13:29Z
TLE epoch observation values (Epoch: 2025-12-17T13:29:05.485Z)
Latitude
-0.00002°
Longitude
154.15378°
Altitude
540.691 km
Speed
7.593 km/s
True Right ascension
05h 31m 25s
True Declination
0° 00' 00"
Sunlit
Object was in full shadow at epoch
Visualization orbit readout
Latitude
Unknown
Longitude
Unknown
Altitude
Unknown
Speed
Unknown
Apparent Right ascension
Unknown
Apparent Declination
Unknown
Sunlit
N/A
Visualization observer readout
Local Sidereal Time
03:23:14
Azimuth
Unknown
Elevation
Unknown
Doppler factor
Unknown
Orbital elements
Apogee altitude
541.138 km
Perigee altitude
538.873 km
Semi-major axis
6,918.143 km
Eccentricity
0.00016
Inclination
53.2204°
RAAN
82.8566°
Arg. of periapsis
91.7204°
True anomaly
268.37885°
Mean anomaly
268.3976°
Eccentric anomaly
268.38822°
Mean motion
3.77189 °/min
Orbital period
95.44 mins
BSTAR
-0.00022483
Loading maneuver chart data...
Computing Atmospheric mass density...
Loading historical data...
Loading historical data...
Loading historical data...
Loading historical data...
Loading historical data...
Loading historical data...
Loading historical data...

Documentation

Showing up to 5 results
|